Weather History for LIRA - December, 2013

Change the Weather History Date:

Saturday, December 7, 2013

  Actual Average (LIRE) Record (LIRE)
Temperature  
Mean Temperature 48 °F -  
Max Temperature 57 °F 55 °F - (-1)
Min Temperature 39 °F 39 °F - (-1)
Degree Days  
Heating Degree Days 17    
Moisture  
Dew Point 41 °F    
Average Humidity 83    
Maximum Humidity 100    
Minimum Humidity 58    
Precipitation  
Precipitation 0.00 in 0.14 in - ()
Sea Level Pressure  
Sea Level Pressure 30.12 in    
Wind  
Wind Speed 2 mph ()    
Max Wind Speed 5 mph    
Max Gust Speed -    
Visibility 5.1 miles    
Events      
Averages and records for this station are not official NWS values.
T = Trace of Precipitation, MM = Missing Value Source: Averaged Metar Reports

Daily Weather History Graph

Daily Weather History Graph

Search for Another Location

Airport or City:

Trip Planner

Search our weather history database for the weather conditions in past years. The results will help you decide how hot, cold, wet, or windy it might be!

Date:

Astronomy

Dec. 07, 2013 Rise Set
Actual Time 7:23 AM CET 4:38 PM CET
Civil Twilight 6:52 AM CET 5:10 PM CET
Nautical Twilight 6:17 AM CET 5:44 PM CET
Astronomical Twilight 5:43 AM CET 6:18 PM CET
Moon 10:55 AM CET (12/7) 10:03 PM CET (12/7)
Length of Visible Light 10h 17m
Length of Day
9h 15m
Waxing Crescent, 26% of the Moon is Illuminated
Dec 7
Waxing Crescent
Dec 9
First Quarter
Dec 17
Full
Dec 25
Last Quarter
Jan 1
New

Hourly Weather History & Observations

Time (CET) Temp. Windchill Dew Point Humidity Pressure Visibility Wind Dir Wind Speed Gust Speed Precip Events Conditions
12:15 AM 48.2 °F - 44.6 °F 87% 30.01 in 5.0 mi NNW 1.2 mph - N/A   Scattered Clouds
12:45 AM 44.6 °F - 42.8 °F 93% 29.98 in 5.0 mi East 1.2 mph - N/A   Scattered Clouds
1:15 AM 42.8 °F - 42.8 °F 100% 29.98 in 5.0 mi SE 1.2 mph - N/A   Scattered Clouds
1:45 AM 42.8 °F - 41.0 °F 93% 29.98 in 5.0 mi ENE 2.3 mph - N/A   Scattered Clouds
2:15 AM 41.0 °F 39.0 °F 41.0 °F 100% 29.98 in 5.0 mi ENE 3.5 mph - N/A   Scattered Clouds
2:45 AM 41.0 °F 39.0 °F 41.0 °F 100% 29.98 in 5.0 mi ENE 3.5 mph - N/A   Scattered Clouds
3:15 AM 41.0 °F - 41.0 °F 100% 29.98 in 5.0 mi ENE 2.3 mph - N/A   Scattered Clouds
3:45 AM 42.8 °F - 41.0 °F 93% 29.98 in 5.0 mi Calm Calm - N/A   Scattered Clouds
4:15 AM 42.8 °F - 41.0 °F 93% 29.98 in 5.0 mi North 1.2 mph - N/A   Scattered Clouds
4:45 AM 41.0 °F - 39.2 °F 93% 30.01 in 5.0 mi North 1.2 mph - N/A   Scattered Clouds
5:15 AM 41.0 °F - 39.2 °F 93% 30.01 in 5.0 mi North 1.2 mph - N/A   Scattered Clouds
5:45 AM 39.2 °F - 39.2 °F 100% 30.01 in 5.0 mi ENE 2.3 mph - N/A   Scattered Clouds
6:15 AM 39.2 °F - 37.4 °F 93% 30.04 in 5.0 mi ENE 2.3 mph - N/A   Partly Cloudy
6:45 AM 39.2 °F 35.9 °F 37.4 °F 93% 30.04 in 5.0 mi ENE 4.6 mph - N/A   Partly Cloudy
7:15 AM 39.2 °F 37.0 °F 37.4 °F 93% 30.04 in 5.0 mi NE 3.5 mph - N/A   Partly Cloudy
7:45 AM 39.2 °F 37.0 °F 37.4 °F 93% 30.06 in 5.0 mi ENE 3.5 mph - N/A   Unknown
8:15 AM 39.2 °F - 37.4 °F 93% 30.09 in 5.0 mi NE 2.3 mph - N/A   Unknown
8:45 AM 39.2 °F - 39.2 °F 100% 30.09 in 5.0 mi NNE 2.3 mph - N/A   Unknown
9:15 AM 42.8 °F 40.1 °F 41.0 °F 93% 30.12 in 5.0 mi NE 4.6 mph - N/A   Unknown
9:45 AM 42.8 °F 41.1 °F 42.8 °F 100% 30.12 in 5.0 mi NE 3.5 mph - N/A   Unknown
10:15 AM 44.6 °F 43.1 °F 41.0 °F 87% 30.12 in 5.0 mi North 3.5 mph - N/A   Unknown
10:45 AM 46.4 °F 45.2 °F 41.0 °F 81% 30.12 in 5.6 mi North 3.5 mph - N/A   Unknown
11:15 AM 50.0 °F - 42.8 °F 76% 30.12 in 5.6 mi North 3.5 mph - N/A   Unknown
11:45 AM 51.8 °F - 42.8 °F 71% 30.15 in 5.6 mi NNW 2.3 mph - N/A   Unknown
12:15 PM 53.6 °F - 42.8 °F 67% 30.15 in - NW 1.2 mph - N/A   Clear
12:45 PM 55.4 °F - 42.8 °F 63% 30.15 in - NW 2.3 mph - N/A   Clear
1:15 PM 55.4 °F - 42.8 °F 63% 30.15 in - NNW 2.3 mph - N/A   Clear
1:45 PM 55.4 °F - 42.8 °F 63% 30.15 in - North 1.2 mph - N/A   Clear
2:15 PM 57.2 °F - 42.8 °F 59% 30.15 in - North 1.2 mph - N/A   Clear
2:45 PM 57.2 °F - 42.8 °F 59% 30.15 in - NW 2.3 mph - N/A   Clear
3:15 PM 55.4 °F - 41.0 °F 58% 30.15 in - NNW 2.3 mph - N/A   Clear
3:45 PM 55.4 °F - 42.8 °F 63% 30.18 in - NNW 2.3 mph - N/A   Clear
4:15 PM 53.6 °F - 39.2 °F 58% 30.18 in - SSE 4.6 mph - N/A   Clear
4:45 PM 53.6 °F - 39.2 °F 58% 30.18 in - SSE 4.6 mph - N/A   Clear
5:15 PM 51.8 °F - 44.6 °F 76% 30.18 in 5.6 mi ENE 3.5 mph - N/A   Unknown
5:45 PM 50.0 °F - 42.8 °F 76% 30.18 in 5.6 mi East 3.5 mph - N/A   Unknown
6:15 PM 48.2 °F - 42.8 °F 82% 30.21 in 5.6 mi Variable 1.2 mph - N/A   Unknown
6:45 PM 48.2 °F - 42.8 °F 82% 30.21 in 5.6 mi East 4.6 mph - N/A   Unknown
7:15 PM 46.4 °F 44.3 °F 41.0 °F 81% 30.21 in 5.6 mi East 4.6 mph - N/A   Unknown
7:45 PM 46.4 °F - 42.8 °F 87% 30.24 in 5.6 mi SE 1.2 mph - N/A   Unknown
8:15 PM 44.6 °F - 41.0 °F 87% 30.24 in 5.6 mi SE 1.2 mph - N/A   Unknown
8:45 PM 44.6 °F - 41.0 °F 87% 30.24 in 5.0 mi NE 2.3 mph - N/A   Unknown
9:15 PM 44.6 °F - 41.0 °F 87% 30.27 in 5.0 mi ENE 2.3 mph - N/A   Unknown
9:45 PM 42.8 °F - 37.4 °F 81% 30.27 in 5.6 mi Calm Calm - N/A   Unknown
10:15 PM 42.8 °F - 37.4 °F 81% 30.27 in 5.0 mi NE 2.3 mph - N/A   Unknown
10:45 PM 41.0 °F - 37.4 °F 87% 30.27 in 5.0 mi ENE 1.2 mph - N/A   Unknown
11:15 PM 41.0 °F - 37.4 °F 87% 30.27 in 4.3 mi Calm Calm - N/A   Partly Cloudy
11:45 PM 41.0 °F - 37.4 °F 87% 30.27 in 4.3 mi Calm Calm - N/A   Partly Cloudy